Seattle, WA

1:36 AM PST on February 11, 2016 (GMT -0800)
Boeing Field-King County International

Weather History for KBFI - March, 2014

Change the Weather History Date:

Sunday, March 23, 2014

  Actual Average Record
Temperature  
Mean Temperature 50 °F -  
Max Temperature 55 °F 54 °F 68 °F (1979)
Min Temperature 44 °F 39 °F 28 °F (1954)
Degree Days  
Heating Degree Days 16    
Moisture  
Dew Point 35 °F    
Average Humidity 59    
Maximum Humidity 73    
Minimum Humidity 45    
Precipitation  
Precipitation 0.00 in - - ()
Sea Level Pressure  
Sea Level Pressure 30.30 in    
Wind  
Wind Speed 3 mph (NNW)    
Max Wind Speed 7 mph    
Max Gust Speed -    
Visibility 10 miles    
Events      
Averages and records for this station are not official NWS values.
T = Trace of Precipitation, MM = Missing Value Source: NWS Daily Summary

Daily Weather History Graph

Daily Weather History Graph

Search for Another Location

Airport or City:

Trip Planner

Search our weather history database for the weather conditions in past years. The results will help you decide how hot, cold, wet, or windy it might be!

Date:

Astronomy

Mar. 23, 2014 Rise Set
Actual Time 7:05 AM PDT 7:26 PM PDT
Civil Twilight 6:35 AM PDT 7:57 PM PDT
Nautical Twilight 5:58 AM PDT 8:33 PM PDT
Astronomical Twilight 5:21 AM PDT 9:11 PM PDT
Moon 2:08 AM PDT (3/23) 11:32 AM PDT (3/23)
Length of Visible Light 13h 22m
Length of Day
12h 20m
Waning Gibbous, 53% of the Moon is Illuminated
Mar 23
Waning Gibbous
Mar 23
Last Quarter
Mar 30
New
Apr 7
First Quarter
Apr 15
Full

Hourly Weather History & Observations

Time (PDT) Temp. Windchill Dew Point Humidity Pressure Visibility Wind Dir Wind Speed Gust Speed Precip Events Conditions
12:53 AM 46.9 °F - 36.0 °F 66% 30.27 in 10.0 mi NNW 3.5 mph - N/A   Overcast
1:53 AM 46.9 °F - 37.0 °F 68% 30.28 in 10.0 mi Calm Calm - N/A   Overcast
2:53 AM 46.9 °F - 34.0 °F 61% 30.29 in 10.0 mi Calm Calm - N/A   Overcast
3:53 AM 46.0 °F 44.8 °F 35.1 °F 66% 30.29 in 10.0 mi NNE 3.5 mph - N/A   Overcast
4:53 AM 45.0 °F 43.5 °F 36.0 °F 71% 30.30 in 10.0 mi Variable 3.5 mph - N/A   Overcast
5:53 AM 44.1 °F - 36.0 °F 73% 30.31 in 10.0 mi Calm Calm - N/A   Overcast
6:53 AM 44.1 °F - 36.0 °F 73% 30.32 in 10.0 mi Calm Calm - N/A   Mostly Cloudy
7:53 AM 44.1 °F 42.5 °F 36.0 °F 73% 30.33 in 10.0 mi North 3.5 mph - N/A   Overcast
8:53 AM 45.0 °F 43.5 °F 35.1 °F 68% 30.34 in 10.0 mi Variable 3.5 mph - N/A   Mostly Cloudy
9:53 AM 46.9 °F - 33.1 °F 59% 30.35 in 10.0 mi NE 5.8 mph - N/A   Scattered Clouds
10:53 AM 50.0 °F - 32.0 °F 50% 30.35 in 10.0 mi Variable 5.8 mph - N/A   Scattered Clouds
11:53 AM 51.1 °F - 34.0 °F 52% 30.35 in 10.0 mi WNW 6.9 mph - N/A   Partly Cloudy
12:53 PM 52.0 °F - 34.0 °F 50% 30.34 in 10.0 mi Variable 4.6 mph - N/A   Partly Cloudy
1:53 PM 53.1 °F - 34.0 °F 48% 30.33 in 10.0 mi Variable 4.6 mph - N/A   Partly Cloudy
2:53 PM 54.0 °F - 34.0 °F 47% 30.31 in 10.0 mi NW 5.8 mph - N/A   Partly Cloudy
3:53 PM 54.0 °F - 34.0 °F 47% 30.31 in 10.0 mi Variable 5.8 mph - N/A   Clear
4:53 PM 55.0 °F - 34.0 °F 45% 30.29 in 10.0 mi NW 6.9 mph - N/A   Mostly Cloudy
5:53 PM 54.0 °F - 33.1 °F 45% 30.28 in 10.0 mi WNW 6.9 mph - N/A   Clear
6:53 PM 52.0 °F - 34.0 °F 50% 30.28 in 10.0 mi NW 5.8 mph - N/A   Clear
7:53 PM 51.1 °F - 34.0 °F 52% 30.27 in 10.0 mi NW 4.6 mph - N/A   Clear
8:53 PM 48.9 °F - 35.1 °F 59% 30.28 in 10.0 mi NW 3.5 mph - N/A   Clear
9:53 PM 48.0 °F - 36.0 °F 63% 30.28 in 10.0 mi Calm Calm - N/A   Clear
10:53 PM 48.0 °F - 36.0 °F 63% 30.28 in 10.0 mi NNW 3.5 mph - N/A   Clear
11:53 PM 46.9 °F - 36.0 °F 66% 30.26 in 10.0 mi Calm Calm - N/A   Clear